EW4553 Weather Reports


time (UTC)temp
F
wind
direction
speed
knots
gust
knots
rain 1hr
in
rain 24hr
in
rain mn
in
humidity
%
barometer
mb
20260507155322 60 133 1.7 7.0 0.00 0.00 0.00 70 1014.9
20260507154554 60 106 1.7 7.0 0.00 0.00 0.00 71 1014.9
20260507154537 60 106 0.0 6.1 0.00 0.00 0.00 71 1014.8
20260507154052 60 164 2.6 7.0 0.00 0.00 0.00 70 1014.9
20260507154037 60 118 1.7 7.0 0.00 0.00 0.00 69 1015.0
20260507153054 60 133 1.7 7.0 0.00 0.00 0.00 69 1014.9
20260507153034 60 133 2.6 7.0 0.00 0.00 0.00 69 1015.0
20260507152755 60 109 2.6 7.0 0.00 0.00 0.00 69 1014.9
20260507152004 60 107 3.5 7.0 0.00 0.00 0.00 68 1015.0
20260507151548 60 106 2.6 7.0 0.00 0.00 0.00 68 1014.9
20260507151504 61 107 2.6 7.0 0.00 0.00 0.00 68 1015.0
20260507151001 61 106 2.6 7.0 0.00 0.00 0.00 71 1015.0
20260507150501 60 105 2.6 7.0 0.00 0.00 0.00 69 1015.1
20260507150107 60 109 2.6 7.0 0.00 0.00 0.00 66 1015.0
20260507145939 61 108 2.6 7.0 0.00 0.00 0.00 67 1015.1
20260507145438 61 109 2.6 7.0 0.00 0.00 0.00 68 1015.2
20260507144934 61 120 2.6 7.8 0.00 0.00 0.00 67 1015.1
20260507144514 61 127 2.6 7.8 0.00 0.00 0.00 64 1015.1
20260507144434 61 127 3.5 7.8 0.00 0.00 0.00 64 1015.2
20260507143918 62 130 2.6 6.1 0.00 0.00 0.00 65 1015.3
20260507143417 62 141 0.9 6.1 0.00 0.00 0.00 65 1015.3
20260507143412 62 117 1.7 6.1 0.00 0.00 0.00 68 1015.4
20260507143039 62 117 0.0 5.2 0.00 0.00 0.00 68 1015.2
20260507142640 62 110 2.6 6.1 0.00 0.00 0.00 69 1015.4
20260507141913 62 116 3.5 7.8 0.00 0.00 0.00 68 1015.5
20260507141601 62 155 3.5 7.0 0.00 0.00 0.00 69 1015.4
20260507141415 62 141 3.5 7.8 0.00 0.00 0.00 68 1015.6
20260507140900 61 110 3.5 7.8 0.00 0.00 0.00 72 1015.7
20260507140356 61 127 3.5 7.8 0.00 0.00 0.00 70 1015.7
20260507140026 60 143 3.5 7.0 0.00 0.00 0.00 69 1015.6
20260507135832 61 139 3.5 7.8 0.00 0.00 0.00 69 1015.7
20260507135328 61 143 3.5 7.8 0.00 0.00 0.00 70 1015.7
20260507134827 61 133 3.5 7.8 0.00 0.00 0.00 73 1015.7
20260507134557 61 130 2.6 7.8 0.00 0.00 0.00 72 1015.6
20260507134252 61 95 4.3 7.8 0.00 0.00 0.00 71 1015.6
20260507133751 62 119 3.5 7.8 0.00 0.00 0.00 68 1015.6
20260507133243 63 126 2.6 7.8 0.00 0.00 0.00 69 1015.6
20260507133018 63 111 2.6 7.0 0.00 0.00 0.00 69 1015.5
20260507132728 63 100 2.6 7.0 0.00 0.00 0.00 71 1015.6
20260507132222 63 123 3.5 7.8 0.00 0.00 0.00 70 1015.7
20260507131934 63 119 2.6 7.8 0.00 0.00 0.00 70 1015.6
20260507131534 63 112 1.7 7.8 0.00 0.00 0.00 70 1015.5
20260507131137 63 133 2.6 7.8 0.00 0.00 0.00 71 1015.7
20260507130626 62 136 3.5 7.8 0.00 0.00 0.00 70 1015.7
20260507130123 62 123 4.3 7.8 0.00 0.00 0.00 70 1015.7
20260507130103 62 123 2.6 7.8 0.00 0.00 0.00 70 1015.6
20260507125623 62 129 3.5 7.8 0.00 0.00 0.00 69 1015.8
20260507125120 63 114 3.5 7.8 0.00 0.00 0.00 70 1015.7
20260507124621 63 142 2.6 7.8 0.00 0.00 0.00 69 1015.6
20260507124555 62 141 3.5 7.8 0.00 0.00 0.00 69 1015.5
20260507124104 63 136 2.6 7.8 0.00 0.00 0.00 72 1015.7
20260507123556 62 110 3.5 7.8 0.00 0.00 0.00 71 1015.7
20260507123052 62 107 3.5 7.8 0.00 0.00 0.00 71 1015.7
20260507123040 61 102 2.6 7.8 0.00 0.00 0.00 71 1015.6
20260507122551 62 114 3.5 7.0 0.00 0.00 0.00 71 1015.8
20260507122258 62 145 2.6 7.0 0.00 0.00 0.00 71 1015.9
20260507122243 62 122 3.5 7.0 0.00 0.00 0.00 72 1015.8
20260507121518 61 145 3.5 7.0 0.00 0.00 0.00 71 1015.8
20260507121017 62 126 2.6 7.0 0.00 0.00 0.00 69 1015.9
20260507120514 62 110 2.6 7.0 0.00 0.00 0.00 69 1015.8
20260507120233 63 109 2.6 7.8 0.00 0.00 0.00 70 1015.8
20260507120055 62 109 1.7 7.8 0.00 0.00 0.00 70 1015.7
20260507115454 63 144 3.5 7.8 0.00 0.00 0.00 70 1015.8
20260507114943 63 147 4.3 8.7 0.00 0.00 0.00 69 1015.9
20260507114528 63 112 4.3 8.7 0.00 0.00 0.00 68 1015.9
20260507114443 63 131 4.3 8.7 0.00 0.00 0.00 68 1016.0
20260507113919 64 129 3.5 7.8 0.00 0.00 0.00 69 1015.9
20260507113419 63 111 3.5 7.8 0.00 0.00 0.00 70 1015.9
20260507113004 63 105 3.5 7.0 0.00 0.00 0.00 69 1015.8
20260507112922 63 124 3.5 7.0 0.00 0.00 0.00 69 1015.9
20260507112353 63 138 2.6 7.0 0.00 0.00 0.00 68 1015.9
20260507111854 64 145 1.7 7.0 0.00 0.00 0.00 69 1015.8
20260507111521 63 100 0.9 6.1 0.00 0.00 0.00 69 1015.7
20260507111347 63 133 0.9 7.0 0.00 0.00 0.00 71 1015.9
20260507110843 63 114 1.7 7.8 0.00 0.00 0.00 71 1015.9
20260507110344 62 183 2.6 7.8 0.00 0.00 0.00 72 1015.9
20260507110122 62 115 2.6 7.8 0.00 0.00 0.00 72 1015.8
20260507105335 61 130 3.5 8.7 0.00 0.00 0.00 71 1015.9
20260507104830 61 138 3.5 8.7 0.00 0.00 0.00 72 1015.9
20260507104519 60 120 1.7 8.7 0.00 0.00 0.00 71 1015.8
20260507104327 61 140 3.5 8.7 0.00 0.00 0.00 72 1016.0
20260507103759 61 120 3.5 7.8 0.00 0.00 0.00 72 1015.9
20260507103258 61 121 2.6 7.8 0.00 0.00 0.00 73 1015.8
20260507103019 60 115 4.3 7.8 0.00 0.00 0.00 72 1015.7
20260507102945 61 126 1.7 7.0 0.00 0.00 0.00 73 1015.8
20260507102223 60 108 1.7 7.8 0.00 0.00 0.00 75 1015.8
20260507101720 60 121 1.7 7.8 0.00 0.00 0.00 74 1015.8
20260507101549 59 120 0.9 6.1 0.00 0.00 0.00 74 1015.7
20260507101215 60 167 2.6 7.8 0.00 0.00 0.00 74 1015.9
20260507100714 60 124 2.6 7.8 0.00 0.00 0.00 75 1015.9
20260507100145 59 140 2.6 6.1 0.00 0.00 0.00 74 1015.9
20260507100055 59 140 2.6 6.1 0.00 0.00 0.00 74 1015.8
20260507095644 59 143 2.6 6.1 0.00 0.00 0.00 74 1015.9
20260507095118 60 105 3.5 7.0 0.00 0.00 0.00 73 1015.8
20260507095054 60 118 2.6 7.0 0.00 0.00 0.00 73 1015.8
20260507094556 60 136 0.9 6.1 0.00 0.00 0.00 74 1015.7
20260507094515 60 118 2.6 7.0 0.00 0.00 0.00 74 1015.7
20260507093617 60 149 0.0 5.2 0.00 0.00 0.00 74 1015.7
20260507093049 60 148 0.0 5.2 0.00 0.00 0.00 76 1015.7
20260507093036 59 122 0.0 3.5 0.00 0.00 0.00 76 1015.6
20260507092523 59 150 0.9 5.2 0.00 0.00 0.00 78 1015.7
20260507092011 59 114 1.7 6.1 0.00 0.00 0.00 80 1015.7
20260507091535 58 136 1.7 6.1 0.00 0.00 0.00 80 1015.6
20260507091512 58 136 2.6 6.1 0.00 0.00 0.00 80 1015.7
20260507091005 58 136 2.6 6.1 0.00 0.00 0.00 82 1015.6
20260507090514 57 126 0.9 6.1 0.00 0.00 0.00 83 1015.6
20260507090037 56 114 0.0 4.3 0.00 0.00 0.00 83 1015.6
20260507090001 56 143 0.0 3.5 0.00 0.00 0.00 83 1015.7
20260507085728 56 158 0.0 0.9 0.00 0.00 0.00 83 1015.7
20260507085001 56 137 0.0 0.9 0.00 0.00 0.00 84 1015.7
20260507084505 55 137 0.0 0.0 0.00 0.00 0.00 84 1015.6
20260507084434 55 137 0.0 0.0 0.00 0.00 0.00 84 1015.6
20260507083912 55 137 0.0 0.0 0.00 0.00 0.00 85 1015.7
20260507083409 54 132 0.0 0.0 0.00 0.00 0.00 85 1015.7
20260507083059 54 132 0.0 0.0 0.00 0.00 0.00 85 1015.5
20260507082908 54 132 0.0 0.0 0.00 0.00 0.00 85 1015.7
20260507082619 54 132 0.0 0.0 0.00 0.00 0.00 86 1015.7
20260507081857 53 132 0.0 3.5 0.00 0.00 0.00 86 1015.7
20260507081512 53 132 0.0 0.9 0.00 0.00 0.00 86 1015.6
20260507081354 53 132 0.0 3.5 0.00 0.00 0.00 86 1015.7
20260507080856 53 131 0.9 4.3 0.00 0.00 0.00 86 1015.7
20260507080342 52 132 1.7 4.3 0.00 0.00 0.00 86 1015.7
20260507080029 52 133 1.7 4.3 0.00 0.00 0.00 86 1015.6
20260507075843 52 133 0.9 5.2 0.00 0.00 0.00 86 1015.7
20260507075320 52 134 0.9 5.2 0.00 0.00 0.00 86 1015.7
20260507074751 52 105 1.7 5.2 0.00 0.00 0.00 87 1015.7
20260507074551 51 105 2.6 5.2 0.00 0.00 0.00 86 1015.5
20260507074247 52 106 0.0 5.2 0.00 0.00 0.00 87 1015.6
20260507074010 51 107 0.0 0.9 0.00 0.00 0.00 87 1015.6
20260507073243 51 107 0.0 0.9 0.00 0.00 0.00 87 1015.5
20260507073047 51 107 0.0 0.9 0.00 0.00 0.00 87 1015.5
20260507072745 51 95 0.0 0.0 0.00 0.00 0.00 87 1015.5
20260507072243 51 95 0.0 0.0 0.00 0.00 0.00 88 1015.6
20260507071739 51 94 0.0 0.0 0.00 0.00 0.00 88 1015.4
20260507071517 50 94 0.0 0.0 0.00 0.00 0.00 88 1015.4
20260507071441 50 85 0.0 0.0 0.00 0.00 0.00 89 1015.4
20260507070647 50 85 0.0 0.0 0.00 0.00 0.00 89 1015.3
20260507070148 50 85 0.0 0.0 0.00 0.00 0.00 89 1015.2
20260507070013 49 85 0.0 0.0 0.00 0.00 0.00 89 1015.2
20260507065623 49 85 0.0 0.0 0.00 0.00 0.00 89 1015.2
20260507065122 49 85 0.0 0.0 0.00 0.00 0.00 89 1015.2
20260507064556 49 85 0.0 0.0 0.00 0.00 0.00 90 1015.2
20260507064532 48 85 0.0 0.0 0.00 0.00 0.00 90 1015.1
20260507064520 49 85 0.0 0.0 0.00 0.00 0.00 90 1015.1
20260507063535 48 85 0.0 0.0 0.00 0.00 0.00 90 1015.1
20260507063031 48 85 0.0 0.0 0.00 0.00 0.00 90 1015.1
20260507063005 48 85 0.0 0.0 0.00 0.00 0.00 90 1015.1
20260507062515 48 241 0.0 0.0 0.00 0.00 0.00 90 1015.1
20260507062016 48 241 0.0 0.0 0.00 0.00 0.00 90 1015.1
20260507061529 47 241 0.0 0.0 0.00 0.00 0.00 90 1015.1
20260507061509 47 241 0.0 0.0 0.00 0.00 0.00 90 1015.1
20260507061009 47 241 0.0 0.0 0.00 0.00 0.00 90 1015.1
20260507060439 47 241 0.0 0.0 0.00 0.00 0.00 90 1015.1
20260507060153 47 241 0.0 0.0 0.00 0.00 0.00 90 1015.1
20260507060106 46 241 0.0 0.0 0.00 0.00 0.00 90 1015.0
20260507055433 47 241 0.0 0.0 0.00 0.00 0.00 90 1015.1
20260507054931 46 241 0.0 0.0 0.00 0.00 0.00 90 1015.0
20260507054512 46 241 0.0 0.0 0.00 0.00 0.00 90 1014.9
20260507054432 46 241 0.0 0.0 0.00 0.00 0.00 90 1015.0
20260507053913 46 241 0.0 0.0 0.00 0.00 0.00 90 1015.1
20260507053344 46 241 0.0 0.0 0.00 0.00 0.00 89 1015.1
20260507053003 45 241 0.0 0.0 0.00 0.00 0.00 89 1014.9
20260507052824 46 241 0.0 0.0 0.00 0.00 0.00 89 1015.0
20260507052315 46 241 0.0 0.0 0.00 0.00 0.00 89 1014.9
20260507051815 46 241 0.0 0.0 0.00 0.00 0.00 89 1014.9
20260507051538 45 241 0.0 0.0 0.00 0.00 0.00 89 1014.8
20260507051524 46 241 0.0 0.0 0.00 0.00 0.00 89 1014.9
20260507050803 46 241 0.0 0.0 0.00 0.00 0.00 89 1015.0
20260507050240 46 241 0.0 0.0 0.00 0.00 0.00 89 1015.0
20260507050014 45 241 0.0 0.0 0.00 0.00 0.00 89 1015.0
20260507045732 46 241 0.0 0.0 0.00 0.00 0.00 89 1015.0
20260507045213 46 241 0.0 0.0 0.00 0.00 0.00 89 1015.0
20260507044713 46 241 0.0 0.0 0.00 0.00 0.00 89 1015.0
20260507044509 45 241 0.0 0.0 0.00 0.00 0.00 89 1015.0
20260507044212 46 241 0.0 0.0 0.00 0.00 0.00 89 1015.0
20260507043911 46 241 0.0 0.0 0.00 0.00 0.00 89 1014.9
20260507043125 46 241 0.0 0.0 0.00 0.00 0.00 89 1014.9
20260507043100 45 241 0.0 0.0 0.00 0.00 0.00 89 1014.8
20260507042600 46 241 0.0 0.0 0.00 0.00 0.00 89 1014.9
20260507042046 46 241 0.0 0.0 0.00 0.00 0.00 89 1014.8
20260507041539 46 241 0.0 0.0 0.00 0.00 0.00 89 1014.8
20260507041532 45 241 0.0 0.0 0.00 0.00 0.00 89 1014.7
20260507041041 46 241 0.0 0.0 0.00 0.00 0.00 89 1014.8
20260507040538 46 241 0.0 0.0 0.00 0.00 0.00 89 1014.8
20260507040049 46 241 0.0 0.0 0.00 0.00 0.00 89 1014.7
20260507040022 45 241 0.0 0.0 0.00 0.00 0.00 89 1014.7
20260507035510 46 241 0.0 0.0 0.00 0.00 0.00 89 1014.7
20260507034945 46 241 0.0 0.0 0.00 0.00 0.00 89 1014.7
20260507034608 45 241 0.0 0.0 0.00 0.00 0.00 88 1014.6
20260507034417 46 241 0.0 0.0 0.00 0.00 0.00 88 1014.6
20260507033854 46 241 0.0 0.0 0.00 0.00 0.00 88 1014.6
20260507033346 46 241 0.0 0.0 0.00 0.00 0.00 88 1014.6
20260507033042 45 241 0.0 0.0 0.00 0.00 0.00 87 1014.5
20260507032845 46 241 0.0 0.0 0.00 0.00 0.00 88 1014.6
20260507032544 46 241 0.0 0.0 0.00 0.00 0.00 87 1014.7
20260507031750 46 241 0.0 0.0 0.00 0.00 0.00 87 1014.7
20260507031550 46 241 0.0 0.0 0.00 0.00 0.00 87 1014.6
20260507031249 46 241 0.0 0.0 0.00 0.00 0.00 87 1014.6
20260507030720 47 241 0.0 0.0 0.00 0.00 0.00 87 1014.5
20260507030216 47 241 0.0 0.0 0.00 0.00 0.00 87 1014.6
20260507030006 46 241 0.0 0.0 0.00 0.00 0.00 87 1014.5
20260507025705 47 241 0.0 0.0 0.00 0.00 0.00 87 1014.6
20260507025426 47 241 0.0 0.0 0.00 0.00 0.00 87 1014.5
20260507024659 47 241 0.0 0.0 0.00 0.00 0.00 87 1014.5
20260507024530 47 241 0.0 0.0 0.00 0.00 0.00 87 1014.4
20260507024130 47 241 0.0 0.0 0.00 0.00 0.00 87 1014.5
20260507023629 47 241 0.0 0.0 0.00 0.00 0.00 86 1014.5
20260507023600 47 241 0.0 0.0 0.00 0.00 0.00 86 1014.4
20260507023014 47 241 0.0 0.0 0.00 0.00 0.00 86 1014.4
20260507022822 47 241 0.0 0.0 0.00 0.00 0.00 86 1014.4
20260507022035 47 188 0.0 0.0 0.00 0.00 0.00 86 1014.4
20260507021556 47 188 0.0 0.0 0.00 0.00 0.00 85 1014.3
20260507021510 47 188 0.0 0.0 0.00 0.00 0.00 85 1014.4
20260507021430 48 188 0.0 0.0 0.00 0.00 0.00 85 1014.5
20260507020444 48 188 0.0 0.0 0.00 0.00 0.00 85 1014.4
20260507020019 47 188 0.0 0.0 0.00 0.00 0.00 85 1014.3
20260507015938 48 188 0.0 0.0 0.00 0.00 0.00 85 1014.4
20260507015415 48 188 0.0 0.0 0.00 0.00 0.00 85 1014.4
20260507014903 48 188 0.0 0.0 0.00 0.00 0.00 85 1014.4
20260507014549 48 188 0.0 0.0 0.00 0.00 0.00 85 1014.3
20260507014402 48 188 0.0 0.0 0.00 0.00 0.00 85 1014.5
20260507013836 48 188 0.0 0.0 0.00 0.00 0.00 85 1014.5
20260507013311 48 188 0.0 0.0 0.00 0.00 0.00 85 1014.5
20260507013022 48 188 0.0 0.0 0.00 0.00 0.00 85 1014.4
20260507012743 48 188 0.0 0.0 0.00 0.00 0.00 85 1014.5
20260507012241 49 188 0.0 0.0 0.00 0.00 0.00 84 1014.6
20260507011711 49 188 0.0 0.0 0.00 0.00 0.00 84 1014.6
20260507011654 49 188 0.0 0.0 0.00 0.00 0.00 84 1014.6
20260507011521 48 188 0.0 0.0 0.00 0.00 0.00 84 1014.5
20260507010643 49 188 0.0 0.0 0.00 0.00 0.00 84 1014.6
20260507010117 49 188 0.0 0.0 0.00 0.00 0.00 84 1014.5
20260507010105 48 188 0.0 0.0 0.00 0.00 0.00 84 1014.5
20260507005548 49 188 0.0 0.0 0.00 0.00 0.00 84 1014.5
20260507005047 49 188 0.0 0.0 0.00 0.00 0.00 83 1014.5
20260507004559 49 188 0.0 0.0 0.00 0.00 0.00 83 1014.4
20260507004540 49 188 0.0 0.0 0.00 0.00 0.00 83 1014.5
20260507004305 49 188 0.0 0.0 0.00 0.00 0.00 83 1014.5
20260507004014 49 188 0.0 0.0 0.00 0.00 0.00 83 1014.5
20260507003255 49 188 0.0 0.0 0.00 0.00 0.00 83 1014.6
20260507003004 49 188 0.0 0.0 0.00 0.00 0.00 83 1014.5
20260507002505 49 188 0.0 0.0 0.00 0.00 0.00 84 1014.6
20260507001936 49 188 0.0 0.0 0.00 0.00 0.00 84 1014.6
20260507001517 49 188 0.0 0.0 0.00 0.00 0.00 85 1014.6
20260507001433 49 188 0.0 0.0 0.00 0.00 0.00 85 1014.6
20260507000941 49 188 0.0 0.0 0.00 0.00 0.00 85 1014.7
20260507000655 49 188 0.0 0.0 0.00 0.00 0.00 84 1014.8
20260507000125 49 188 0.0 0.0 0.00 0.00 0.00 84 1014.7
20260507000030 49 188 0.0 0.0 0.00 0.00 0.00 84 1014.7
20260506235401 49 188 0.0 0.0 0.00 0.00 0.00 84 1014.7
20260506234826 50 188 0.0 0.0 0.00 0.00 0.00 84 1014.7
20260506234538 49 188 0.0 0.0 0.00 0.00 0.00 84 1014.7
20260506234258 50 188 0.0 0.0 0.00 0.00 0.00 84 1014.7
20260506233757 50 188 0.0 0.0 0.00 0.00 0.00 84 1014.7
20260506233228 50 188 0.0 0.0 0.00 0.00 0.00 84 1014.7
20260506233028 49 188 0.0 0.0 0.00 0.00 0.00 84 1014.6
20260506232740 50 188 0.0 0.0 0.00 0.00 0.00 84 1014.6
20260506232210 50 188 0.0 0.0 0.00 0.00 0.00 83 1014.6
20260506231707 50 188 0.0 0.0 0.00 0.00 0.00 83 1014.7
20260506231542 49 188 0.0 0.0 0.00 0.00 0.00 83 1014.6
20260506231152 50 188 0.0 0.0 0.00 0.00 0.00 83 1014.7
20260506230650 50 188 0.0 0.0 0.00 0.00 0.00 82 1014.7
20260506230127 50 188 0.0 0.0 0.00 0.00 0.00 82 1014.7
20260506230058 49 188 0.0 0.0 0.00 0.00 0.00 82 1014.6
20260506225847 50 188 0.0 0.0 0.00 0.00 0.00 82 1014.7
20260506225123 50 188 0.0 0.0 0.00 0.00 0.00 81 1014.7
20260506224623 50 188 0.0 0.0 0.00 0.00 0.00 81 1014.7
20260506224555 49 188 0.0 0.0 0.00 0.00 0.00 81 1014.7
20260506224320 50 188 0.0 0.0 0.00 0.00 0.00 80 1014.7
20260506224023 50 188 0.0 0.0 0.00 0.00 0.00 80 1014.8
20260506223033 50 188 0.0 0.0 0.00 0.00 0.00 79 1014.7
20260506223003 49 188 0.0 0.0 0.00 0.00 0.00 79 1014.6
20260506222519 50 188 0.0 0.0 0.00 0.00 0.00 79 1014.7
20260506222021 50 188 0.0 0.0 0.00 0.00 0.00 79 1014.7
20260506222004 50 188 0.0 0.0 0.00 0.00 0.00 78 1014.6
20260506221553 49 188 0.0 0.0 0.00 0.00 0.00 79 1014.6
20260506221013 50 188 0.0 0.0 0.00 0.00 0.00 78 1014.6
20260506220518 50 188 0.0 0.0 0.00 0.00 0.00 78 1014.6
20260506220022 49 188 0.0 0.0 0.00 0.00 0.00 78 1014.5
20260506220002 50 188 0.0 0.0 0.00 0.00 0.00 78 1014.6
20260506215501 50 188 0.0 0.0 0.00 0.00 0.00 78 1014.6
20260506214931 50 188 0.0 0.0 0.00 0.00 0.00 78 1014.6
20260506214609 50 188 0.0 0.0 0.00 0.00 0.00 78 1014.5
20260506214407 50 188 0.0 0.0 0.00 0.00 0.00 78 1014.6
20260506213839 50 188 0.0 0.0 0.00 0.00 0.00 78 1014.6
20260506213536 50 188 0.0 0.0 0.00 0.00 0.00 77 1014.6
20260506213055 50 188 0.0 0.0 0.00 0.00 0.00 77 1014.5
20260506212748 50 188 0.0 0.0 0.00 0.00 0.00 77 1014.6
20260506212220 50 188 0.0 0.0 0.00 0.00 0.00 77 1014.6
20260506211945 50 188 0.0 0.0 0.00 0.00 0.00 77 1014.6
20260506211548 50 188 0.0 0.0 0.00 0.00 0.00 77 1014.6
20260506211150 50 188 0.0 0.0 0.00 0.00 0.00 77 1014.6
20260506211106 50 188 0.0 0.0 0.00 0.00 0.00 77 1014.6
20260506210120 50 188 0.0 0.0 0.00 0.00 0.00 77 1014.5
20260506210027 50 188 0.0 0.0 0.00 0.00 0.00 77 1014.5
20260506205617 51 188 0.0 0.0 0.00 0.00 0.00 77 1014.5
20260506205112 51 188 0.0 0.0 0.00 0.00 0.00 76 1014.5
20260506204608 51 188 0.0 0.0 0.00 0.00 0.00 76 1014.4
20260506204543 50 188 0.0 0.0 0.00 0.00 0.00 76 1014.3
20260506204106 51 188 0.0 0.0 0.00 0.00 0.00 76 1014.4
20260506203533 51 188 0.0 0.0 0.00 0.00 0.00 76 1014.4
20260506203030 51 188 0.0 0.9 0.00 0.00 0.00 76 1014.4
20260506203013 50 188 0.0 0.0 0.00 0.00 0.00 76 1014.3
20260506202721 51 188 0.0 0.9 0.00 0.00 0.00 76 1014.3
20260506202146 51 188 0.0 0.9 0.00 0.00 0.00 76 1014.3
20260506201515 51 188 0.0 0.9 0.00 0.00 0.00 76 1014.2
20260506201424 51 188 0.0 0.9 0.00 0.00 0.00 76 1014.3
20260506200859 51 188 0.0 0.0 0.00 0.00 0.00 76 1014.2
20260506200348 51 188 0.0 0.0 0.00 0.00 0.00 75 1014.2
20260506200257 51 188 0.0 3.5 0.00 0.00 0.00 75 1014.2
20260506200046 51 188 0.0 0.0 0.00 0.00 0.00 75 1014.1
20260506195306 51 188 0.9 3.5 0.00 0.00 0.00 75 1014.1
20260506194739 51 188 1.7 3.5 0.00 0.00 0.00 74 1014.1
20260506194600 51 188 0.9 3.5 0.00 0.00 0.00 74 1014.0
20260506194226 52 188 0.9 3.5 0.00 0.00 0.00 75 1014.0
20260506193729 52 188 0.9 3.5 0.00 0.00 0.00 75 1014.0
20260506193212 52 188 1.7 3.5 0.00 0.00 0.00 75 1014.1
20260506193014 51 188 0.9 3.5 0.00 0.00 0.00 75 1013.9
20260506192712 52 188 0.9 3.5 0.00 0.00 0.00 75 1014.0
20260506192219 52 188 0.0 4.3 0.00 0.00 0.00 75 1014.0
20260506191924 52 188 0.9 4.3 0.00 0.00 0.00 75 1014.0
20260506191550 52 188 0.0 4.3 0.00 0.00 0.00 75 1013.9
20260506191406 52 188 1.7 4.3 0.00 0.00 0.00 75 1013.8
20260506190616 52 188 0.9 4.3 0.00 0.00 0.00 74 1013.8
20260506190108 52 187 0.9 4.3 0.00 0.00 0.00 74 1013.8
20260506190033 52 187 0.9 4.3 0.00 0.00 0.00 74 1013.7
20260506185534 52 187 1.7 4.3 0.00 0.00 0.00 73 1013.8
20260506185031 52 187 1.7 4.3 0.00 0.00 0.00 73 1013.8
20260506184548 52 182 2.6 5.2 0.00 0.00 0.00 73 1013.8
20260506184529 53 182 2.6 6.1 0.00 0.00 0.00 73 1013.8
20260506184027 53 195 2.6 6.1 0.00 0.00 0.00 73 1013.8
20260506183522 53 197 1.7 6.1 0.00 0.00 0.00 72 1013.8
20260506183019 53 196 1.7 6.1 0.00 0.00 0.00 73 1013.8
20260506183007 52 196 1.7 5.2 0.00 0.00 0.00 73 1013.7
20260506182530 53 197 2.6 6.1 0.00 0.00 0.00 72 1013.7
20260506182012 53 197 1.7 6.1 0.00 0.00 0.00 72 1013.7
20260506181527 52 195 1.7 6.1 0.00 0.00 0.00 72 1013.6
20260506181519 53 192 1.7 6.1 0.00 0.00 0.00 72 1013.7
20260506181002 53 185 2.6 6.1 0.00 0.00 0.00 72 1013.6
20260506180456 53 195 2.6 6.1 0.00 0.00 0.00 71 1013.6
20260506180150 53 175 2.6 7.8 0.00 0.00 0.00 71 1013.6
20260506180048 53 175 1.7 5.2 0.00 0.00 0.00 71 1013.6
20260506175422 53 194 3.5 7.8 0.00 0.00 0.00 71 1013.5
20260506175148 53 191 3.5 7.8 0.00 0.00 0.00 71 1013.5
20260506174642 53 178 2.6 7.8 0.00 0.00 0.00 71 1013.4
20260506174502 53 178 3.5 7.8 0.00 0.00 0.00 71 1013.4
20260506173853 54 180 2.6 9.6 0.00 0.00 0.00 71 1013.4
20260506173351 54 193 3.5 9.6 0.00 0.00 0.00 72 1013.4
20260506173128 54 188 2.6 9.6 0.00 0.00 0.00 72 1013.3
20260506172838 54 198 4.3 9.6 0.00 0.00 0.00 71 1013.3
20260506172604 54 177 3.5 9.6 0.00 0.00 0.00 71 1013.3
20260506171828 55 211 2.6 8.7 0.00 0.00 0.00 71 1013.2
20260506171521 54 194 1.7 7.8 0.00 0.00 0.00 71 1013.2
20260506171328 55 218 4.3 8.7 0.00 0.00 0.00 71 1013.2
20260506170803 55 198 4.3 8.7 0.00 0.00 0.00 71 1013.2
20260506170458 56 170 3.5 7.8 0.00 0.00 0.00 71 1013.1
20260506170040 55 164 4.3 7.8 0.00 0.00 0.00 70 1013.1
20260506165734 56 208 3.5 7.8 0.00 0.00 0.00 71 1013.2
20260506165212 56 156 3.5 7.8 0.00 0.00 0.00 70 1013.1
20260506164648 57 198 2.6 7.8 0.00 0.00 0.00 69 1013.1
20260506164506 57 176 3.5 7.8 0.00 0.00 0.00 69 1013.1
20260506164119 57 214 2.6 7.8 0.00 0.00 0.00 69 1013.1
20260506163554 57 188 2.6 7.8 0.00 0.00 0.00 68 1013.1
20260506163051 58 176 2.6 7.8 0.00 0.00 0.00 67 1013.1
20260506163047 57 174 3.5 7.8 0.00 0.00 0.00 67 1013.1
20260506162552 58 166 2.6 7.8 0.00 0.00 0.00 68 1013.2
20260506162040 58 167 2.6 5.2 0.00 0.00 0.00 66 1013.2
20260506161546 58 190 1.7 6.1 0.00 0.00 0.00 65 1013.2
20260506161501 59 160 2.6 6.1 0.00 0.00 0.00 65 1013.2
20260506160932 59 159 1.7 5.2 0.00 0.00 0.00 65 1013.2
20260506160433 60 185 1.7 5.2 0.00 0.00 0.00 64 1013.2
20260506160013 59 148 0.9 5.2 0.00 0.00 0.00 61 1013.2
20260506155931 60 142 0.9 5.2 0.00 0.00 0.00 61 1013.3